Williamsport, PA

4:17 AM EDT on April 21, 2018 (GMT -0400)
Williamsport Rgnl

Weather History for KIPT - April, 2012

Change the Weather History Date:

Tuesday, April 3, 2012

  Actual Average Record
Temperature  
Mean Temperature 50 °F 45 °F  
Max Temperature 68 °F 56 °F 83 °F (1963)
Min Temperature 31 °F 35 °F 22 °F (1995)
Degree Days  
Heating Degree Days 15 20  
Month to date heating degree days 49 61  
Since 1 July heating degree days 4300 5357  
Cooling Degree Days 0 0  
Month to date cooling degree days 0 0  
Year to date cooling degree days 0 0  
Moisture  
Dew Point 23 °F    
Average Humidity 40    
Maximum Humidity 66    
Minimum Humidity 13    
Precipitation  
Precipitation 0.00 in 0.11 in 1.76 in (1960)
Month to date precipitation 0.10 0.34  
Year to date precipitation 6.05 8.35  
Snow  
Snow 0.00 in 0.00 in 2.50 in (1901)
Month to date snowfall 0.0 0.2  
Since 1 July snowfall 12.3 35.1  
Snow Depth 0.00 in    
Sea Level Pressure  
Sea Level Pressure 29.91 in    
Wind  
Wind Speed 5 mph (West)    
Max Wind Speed 13 mph    
Max Gust Speed 18 mph    
Visibility 10 miles    
Events      
T = Trace of Precipitation, MM = Missing Value Source: NWS Daily Summary

Daily Weather History Graph

Daily Weather History Graph

Search for Another Location

Airport or City:

Astronomy

Apr. 03, 2012 Rise Set
Actual Time 6:46 AM EDT 7:35 PM EDT
Civil Twilight 6:18 AM EDT 8:03 PM EDT
Nautical Twilight 5:45 AM EDT 8:36 PM EDT
Astronomical Twilight 5:11 AM EDT 9:11 PM EDT
Moon 4:14 PM EDT (4/3) 4:35 AM EDT (4/3)
Length of Visible Light 13h 44m
Length of Day
12h 48m
Waxing Gibbous, 86% of the Moon is Illuminated
Apr 3
Waxing Gibbous
Apr 6
Full
Apr 13
Last Quarter
Apr 21
New
Apr 29
First Quarter

Hourly Weather History & Observations

Time (EDT) Temp. Windchill Dew Point Humidity Pressure Visibility Wind Dir Wind Speed Gust Speed Precip Events Conditions
12:54 AM 42.1 °F 37.1 °F 21.0 °F 43% 29.97 in 10.0 mi West 8.1 mph - N/A   Clear
1:54 AM 39.0 °F 34.0 °F 21.0 °F 49% 29.98 in 10.0 mi West 6.9 mph - N/A   Clear
2:54 AM 39.0 °F 34.8 °F 21.0 °F 49% 29.97 in 10.0 mi West 5.8 mph - N/A   Clear
3:54 AM 37.4 °F 32.8 °F 21.2 °F 52% 29.97 in 10.0 mi West 5.8 mph - N/A   Clear
4:54 AM 37.9 °F 31.5 °F 23.0 °F 55% 30.00 in 10.0 mi West 9.2 mph - N/A   Clear
5:54 AM 36.0 °F 30.3 °F 24.1 °F 62% 30.01 in 10.0 mi West 6.9 mph - N/A   Clear
6:54 AM 32.0 °F 28.7 °F 23.0 °F 69% 30.03 in 10.0 mi NNW 3.5 mph - N/A   Clear
7:54 AM 37.0 °F - 24.1 °F 59% 30.03 in 10.0 mi Calm Calm - N/A   Clear
8:54 AM 41.0 °F 35.2 °F 27.0 °F 57% 30.03 in 10.0 mi WSW 9.2 mph - N/A   Clear
9:54 AM 46.0 °F 42.5 °F 21.9 °F 39% 30.02 in 10.0 mi Variable 6.9 mph - 0.00 in   Clear
10:54 AM 50.0 °F - 21.9 °F 33% 30.00 in 10.0 mi West 8.1 mph - N/A   Clear
11:54 AM 54.0 °F - 21.0 °F 28% 29.99 in 10.0 mi WSW 11.5 mph 18.4 mph N/A   Clear
12:54 PM 57.9 °F - 21.0 °F 24% 29.96 in 10.0 mi West 9.2 mph - N/A   Clear
1:54 PM 62.1 °F - 21.0 °F 21% 29.91 in 10.0 mi WSW 9.2 mph - N/A   Clear
2:54 PM 64.9 °F - 18.0 °F 16% 29.89 in 10.0 mi WSW 5.8 mph 16.1 mph N/A   Scattered Clouds
3:54 PM 66.0 °F - 17.1 °F 15% 29.84 in 10.0 mi Calm Calm - N/A   Clear
4:54 PM 66.9 °F - 14.0 °F 13% 29.81 in 10.0 mi Calm Calm - N/A   Clear
5:54 PM 66.9 °F - 14.0 °F 13% 29.79 in 10.0 mi Calm Calm - N/A   Clear
6:54 PM 63.0 °F - 19.9 °F 19% 29.78 in 10.0 mi ENE 4.6 mph - N/A   Partly Cloudy
7:54 PM 59.0 °F - 28.0 °F 31% 29.78 in 10.0 mi East 4.6 mph - N/A   Clear
8:54 PM 53.6 °F - 30.2 °F 41% 29.79 in 10.0 mi Calm Calm - N/A   Scattered Clouds
9:54 PM 52.0 °F - 30.0 °F 43% 29.79 in 10.0 mi Calm Calm - N/A   Clear
10:54 PM 48.0 °F - 32.0 °F 54% 29.79 in 10.0 mi Calm Calm - N/A   Clear
11:54 PM 48.0 °F - 32.0 °F 54% 29.78 in 10.0 mi East 3.5 mph - N/A   Overcast